Location: Alladorf
(49.9620°N, 11.3790°E)
Time: 21:04:40
(UTC+00:00)

ALOS - Pass Details

Date: 29 November 2020
Orbit: 682 x 686 km, 97.9° (Epoch: 25 January)

Event Time Altitude Azimuth Distance (km) Brightness Sun altitude
Rises 05:24:16 0° 2° (N) 3,067 5.5 -13.0°
Reaches altitude 10° 05:27:06 10° 345° (NNW) 2,146 4.5 -12.6°
Maximum altitude 05:30:17 19° 301° (WNW) 1,639 3.6 -12.1°
Enters shadow 05:31:48 16° 277° (W) 1,762 3.8 -11.9°
